EW2997 Weather Reports


Display with metric or nautical units.
time (UTC)temp
F
wind
direction
speed
MPH
gust
MPH
rain 1hr
in
rain 24hr
in
rain mn
in
humidity
%
barometer
mb
20260905002443 74 239 2.0 2.0 0.00 0.00 0.00 91 1016.3
20260904235443 75 222 2.0 2.0 0.00 0.00 0.00 90 1016.3
20260904232444 78 222 0.0 0.0 0.00 0.00 0.00 85 1016.3
20260904225440 79 222 0.0 0.0 0.00 0.00 0.00 84 1016.3
20260904222438 80 222 1.0 1.0 0.00 0.00 0.00 77 1017.0
20260904215435 81 251 0.0 0.0 0.00 0.00 0.00 69 1017.0
20260904212433 82 277 2.0 2.0 0.00 0.00 0.00 64 1016.7
20260904205432 82 288 3.0 3.0 0.00 0.00 0.00 63 1017.0
20260904202431 85 18 0.0 0.0 0.00 0.00 0.00 59 1017.0
20260904195427 85 32 0.0 0.0 0.00 0.00 0.00 64 1017.7
20260904192425 83 115 0.0 0.0 0.00 0.00 0.00 69 1017.4
20260904185424 82 300 0.0 0.0 0.00 0.00 0.00 67 1017.7
20260904182424 84 303 0.0 0.0 0.00 0.00 0.00 63 1017.7
20260904175419 85 65 2.0 2.0 0.00 0.00 0.00 58 1018.4
20260904172420 85 47 3.0 4.0 0.00 0.00 0.00 65 1018.4
20260904165418 82 276 2.0 2.0 0.00 0.00 0.00 69 1018.7
20260904162415 80 247 1.0 1.0 0.00 0.00 0.00 72 1019.0
20260904155415 80 292 2.0 2.0 0.00 0.00 0.00 72 1019.0
20260904152413 78 38 1.0 1.0 0.00 0.00 0.00 73 1019.5
20260904145410 78 168 0.0 0.0 0.00 0.00 0.00 74 1019.5
20260904142408 77 312 2.0 2.0 0.00 0.00 0.00 77 1019.0
20260904135406 75 90 1.0 1.0 0.00 0.00 0.00 79 1019.5
20260904132404 73 114 0.0 0.0 0.00 0.00 0.00 87 1019.5
20260904125403 75 144 0.0 0.0 0.00 0.00 0.00 77 1019.0
20260904122401 73 82 0.0 0.0 0.00 0.00 0.00 86 1019.0
20260904115358 67 150 0.0 0.0 0.00 0.00 0.00 97 1019.5
20260904112355 66 150 0.0 0.0 0.00 0.00 0.00 97 1019.0
20260904105353 66 149 0.0 0.0 0.00 0.00 0.00 97 1018.7
20260904102349 67 150 0.0 0.0 0.00 0.00 0.00 97 1018.4
20260904095345 67 150 0.0 0.0 0.00 0.00 0.00 97 1018.4
20260904092341 68 221 0.0 0.0 0.00 0.00 0.00 96 1018.7
20260904085337 68 155 1.0 1.0 0.00 0.00 0.00 96 1018.4
20260904082332 68 132 0.0 0.0 0.00 0.00 0.00 96 1018.4
20260904075329 68 132 0.0 0.0 0.00 0.00 0.00 96 1018.4
20260904072326 67 132 0.0 0.0 0.00 0.00 0.00 96 1017.7
20260904065326 67 181 0.0 0.0 0.00 0.00 0.00 96 1017.4
20260904062322 67 180 1.0 1.0 0.00 0.00 0.00 96 1017.7
20260904055319 67 224 0.0 0.0 0.00 0.00 0.00 95 1017.7
20260904052315 68 185 2.0 2.0 0.00 0.00 0.00 94 1018.7
20260904045311 67 192 0.0 0.0 0.00 0.00 0.00 96 1018.7
20260904042308 68 148 0.0 0.0 0.00 0.00 0.00 96 1018.7
20260904035306 68 246 2.0 2.0 0.04 0.66 0.66 95 1018.7
20260904032306 68 76 1.0 1.0 0.03 0.64 0.64 95 1019.5
20260904025300 69 96 2.0 2.0 0.11 0.59 0.59 94 1021.2
20260904022256 69 114 2.0 2.0 0.04 0.53 0.53 95 1020.8
20260904015254 70 186 0.0 0.0 0.04 0.48 0.48 94 1019.5
20260904012252 71 253 3.0 3.0 0.03 0.47 0.47 88 1019.0
20260904005252 74 4 4.0 4.0 0.01 0.39 0.39 83 1019.5